STARLINK-1874 (47159 NORAD) Tracking and Keplerian Element Data

This shows tracking and keplerian element data for the satellite.

Feedback or suggestion? Click here.




ElementValue
Catalog47159
NameSTARLINK-1874
Epoch Orbit180
Epoch Day99.91667824
Epoch Year2021
RAAN78.6753
Inclination53.0548
Eccentricity0.0001129
Argument of Perigee62.9607
Mean Anonmoly277.927
Mean Motion15.0638763
Decay Rate0.00025236
L11 47159U 20088AP 21099.91667824 .00025236 00000-0 17076-2 0 9999
L22 47159 53.0548 78.6753 0001129 62.9607 277.9270 15.06387630 1804

Live tracking and technical data element details for STARLINK-1874 (NORAD 47159). STARLINK-1874 can be tracked NOW for your location showing map with azimuth and elevation plus other details from your city location.

Track the satellite on the map from your city or location and see movement details for azimuth, elevation, latitude, longitude, range, height, and movement on the map or in text.







IsCatalogInMostPopularTable: catalog: 47159, numindb: 50
Update: records affected: 1



GetName: 47159 STARLINK-1874

Hit Count: updated at: Sat, 10 Apr 2021 19:04:10 GMT